Time,TemperatureF,DewpointF,PressureIn,WindDirection,WindDirectionDegrees,WindSpeedMPH,WindSpeedGustMPH,Humidity,HourlyPrecipIn,Conditions,Clouds,dailyrainin,SoftwareType,DateUTC
2013-10-22 00:22:00,61.0,46.0,29.90,South,177,0.0,0.0,58,0.00,,,0.00,,2013-10-22 07:22:00,
2013-10-22 01:12:00,60.0,46.0,29.91,NE,46,0.0,0.0,60,0.00,,,0.00,,2013-10-22 08:12:00,
2013-10-22 01:22:00,60.0,46.0,29.91,NE,47,0.0,0.0,59,0.00,,,0.00,,2013-10-22 08:22:00,
2013-10-22 01:41:00,59.0,46.0,29.91,NE,45,0.0,0.0,61,0.00,,,0.00,,2013-10-22 08:41:00,
2013-10-22 01:52:00,59.0,46.0,29.91,NE,44,0.0,0.0,62,0.00,,,0.00,,2013-10-22 08:52:00,
2013-10-22 02:21:00,58.0,45.0,29.91,NNE,21,0.0,2.0,63,0.00,,,0.00,,2013-10-22 09:21:00,
2013-10-22 03:43:00,58.0,43.0,29.90,ENE,62,0.0,0.0,58,0.00,,,0.00,,2013-10-22 10:43:00,
2013-10-22 03:53:00,58.0,44.0,29.90,ENE,63,0.0,0.0,59,0.00,,,0.00,,2013-10-22 10:53:00,
2013-10-22 04:22:00,56.0,42.0,29.90,ENE,66,0.0,0.0,59,0.00,,,0.00,,2013-10-22 11:22:00,
2013-10-22 04:52:00,56.0,42.0,29.90,NE,36,1.0,2.0,59,0.00,,,0.00,,2013-10-22 11:52:00,
2013-10-22 05:22:00,56.0,39.0,29.90,NE,53,2.0,4.0,52,0.00,,,0.00,,2013-10-22 12:22:00,
2013-10-22 05:42:00,58.0,37.0,29.90,NE,39,1.0,4.0,46,0.00,,,0.00,,2013-10-22 12:42:00,
2013-10-22 05:52:00,58.0,36.0,29.91,NE,41,1.0,2.0,44,0.00,,,0.00,,2013-10-22 12:52:00,
2013-10-22 06:11:00,57.0,37.0,29.91,ENE,71,0.0,0.0,47,0.00,,,0.00,,2013-10-22 13:11:00,
2013-10-22 06:21:00,57.0,36.0,29.91,NE,35,2.0,3.0,46,0.00,,,0.00,,2013-10-22 13:21:00,
2013-10-22 06:42:00,58.0,33.0,29.91,NNE,31,3.0,5.0,39,0.00,,,0.00,,2013-10-22 13:42:00,
2013-10-22 06:53:00,59.0,33.0,29.92,NNE,27,3.0,5.0,37,0.00,,,0.00,,2013-10-22 13:53:00,
2013-10-22 07:11:00,60.0,34.0,29.92,NNE,33,2.0,3.0,37,0.00,,,0.00,,2013-10-22 14:11:00,
2013-10-22 07:21:00,59.0,33.0,29.93,NE,50,2.0,4.0,38,0.00,,,0.00,,2013-10-22 14:21:00,
2013-10-22 07:42:00,61.0,35.0,29.93,NNE,18,3.0,6.0,37,0.00,,,0.00,,2013-10-22 14:42:00,
2013-10-22 07:52:00,63.0,36.0,29.93,NE,38,2.0,4.0,36,0.00,,,0.00,,2013-10-22 14:52:00,
2013-10-22 09:53:00,75.0,37.0,29.95,NNE,23,5.0,7.0,25,0.00,,,0.00,,2013-10-22 16:53:00,
2013-10-22 10:22:00,78.0,39.0,29.95,NNE,28,4.0,5.0,25,0.00,,,0.00,,2013-10-22 17:22:00,
2013-10-22 10:43:00,80.0,35.0,29.95,NE,44,4.0,5.0,20,0.00,,,0.00,,2013-10-22 17:43:00,
2013-10-22 10:52:00,81.0,35.0,29.95,NE,41,5.0,8.0,19,0.00,,,0.00,,2013-10-22 17:52:00,
2013-10-22 11:22:00,83.0,35.0,29.94,NNE,14,5.0,9.0,18,0.00,,,0.00,,2013-10-22 18:22:00,
2013-10-22 11:42:00,85.0,34.0,29.94,NNE,32,4.0,6.0,16,0.00,,,0.00,,2013-10-22 18:42:00,
2013-10-22 11:52:00,85.0,34.0,29.93,NNE,29,5.0,8.0,16,0.00,,,0.00,,2013-10-22 18:52:00,
2013-10-22 12:12:00,86.0,33.0,29.92,East,79,6.0,11.0,15,0.00,,,0.00,,2013-10-22 19:12:00,
2013-10-22 12:22:00,87.0,32.0,29.92,NE,51,7.0,9.0,14,0.00,,,0.00,,2013-10-22 19:22:00,
2013-10-22 12:42:00,87.0,34.0,29.91,North,10,2.0,5.0,15,0.00,,,0.00,,2013-10-22 19:42:00,
2013-10-22 12:52:00,88.0,33.0,29.90,East,83,2.0,7.0,14,0.00,,,0.00,,2013-10-22 19:52:00,
2013-10-22 13:22:00,89.0,34.0,29.89,NE,35,6.0,8.0,14,0.00,,,0.00,,2013-10-22 20:22:00,
2013-10-22 13:42:00,89.0,34.0,29.88,NE,54,4.0,8.0,14,0.00,,,0.00,,2013-10-22 20:42:00,
2013-10-22 13:52:00,89.0,34.0,29.87,North,8,4.0,8.0,14,0.00,,,0.00,,2013-10-22 20:52:00,
2013-10-22 14:22:00,90.0,34.0,29.86,East,89,6.0,9.0,14,0.00,,,0.00,,2013-10-22 21:22:00,
2013-10-22 14:44:00,90.0,33.0,29.86,ENE,76,4.0,4.0,13,0.00,,,0.00,,2013-10-22 21:44:00,
2013-10-22 14:54:00,90.0,31.0,29.85,NNE,26,2.0,3.0,12,0.00,,,0.00,,2013-10-22 21:54:00,
2013-10-22 15:23:00,90.0,33.0,29.85,NE,40,1.0,2.0,13,0.00,,,0.00,,2013-10-22 22:23:00,
2013-10-22 15:43:00,91.0,29.0,29.84,NE,39,1.0,4.0,11,0.00,,,0.00,,2013-10-22 22:43:00,
2013-10-22 15:53:00,91.0,31.0,29.84,NNW,336,1.0,2.0,12,0.00,,,0.00,,2013-10-22 22:53:00,
2013-10-22 16:23:00,91.0,29.0,29.83,NE,43,0.0,1.0,11,0.00,,,0.00,,2013-10-22 23:23:00,
2013-10-22 16:42:00,90.0,28.0,29.83,North,5,4.0,5.0,11,0.00,,,0.00,,2013-10-22 23:42:00,
2013-10-22 16:53:00,90.0,26.0,29.82,North,352,3.0,5.0,10,0.00,,,0.00,,2013-10-22 23:53:00,
2013-10-22 17:11:00,90.0,28.0,29.82,NNE,30,1.0,3.0,11,0.00,,,0.00,,2013-10-23 00:11:00,
2013-10-22 17:22:00,90.0,31.0,29.81,NW,324,0.0,1.0,12,0.00,,,0.00,,2013-10-23 00:22:00,
2013-10-22 17:42:00,89.0,32.0,29.81,WNW,302,0.0,0.0,13,0.00,,,0.00,,2013-10-23 00:42:00,
2013-10-22 17:52:00,88.0,33.0,29.81,WNW,300,0.0,0.0,14,0.00,,,0.00,,2013-10-23 00:52:00,
2013-10-22 18:11:00,85.0,34.0,29.81,WNW,293,0.0,0.0,16,0.00,,,0.00,,2013-10-23 01:11:00,
2013-10-22 18:23:00,84.0,34.0,29.81,WNW,293,0.0,0.0,17,0.00,,,0.00,,2013-10-23 01:23:00,
2013-10-22 18:42:00,81.0,37.0,29.81,WNW,291,0.0,0.0,21,0.00,,,0.00,,2013-10-23 01:42:00,
2013-10-22 18:52:00,80.0,38.0,29.81,WNW,285,0.0,0.0,22,0.00,,,0.00,,2013-10-23 01:52:00,
2013-10-22 21:24:00,69.0,39.0,29.83,North,6,0.0,0.0,34,0.00,,,0.00,,2013-10-23 04:24:00,
2013-10-22 23:42:00,63.0,41.0,29.82,NNE,18,0.0,1.0,44,0.00,,,0.00,,2013-10-23 06:42:00,
2013-10-22 23:52:00,63.0,41.0,29.82,NNE,18,0.0,0.0,45,0.00,,,0.00,,2013-10-23 06:52:00,